FIN61 EFHK-RJTT

Flight info

Callsign FIN61
Flight time N/A
Altitude 34000
Route TEVRU Y75 USUPO DCT BARUX DCT 80N021E/N0496F360 82N020E/M085F360 8930N06000W/N0492F360 DCT DEKMO/N0496F370 DCT 80N165W DCT JUJXI/N0491F380 DCT MARCC R338 MORLY/N0496F400 DCT HAXIT M523 IPGUD Y800 ESNIP Y810 AKRIT Y807 POLIX
Aircraft A359/H-SDE2E3GHIJ3J4J5LM1ORWXY/LB1D1

Departure

Time N/A
Airport Helsinki Vantaa Airport (EFHK)

Arrival

Time 2026-05-06 17:50
Airport Tokyo Haneda International Airport (RJTT)
Time Latitude Longitude Altitude Speed Heading
2026-05-06 16:35 39.76797 144.97725 40198 ft 405 kts 230°
2026-05-06 16:35 39.74686 144.95240 40095 ft 414 kts 227°
2026-05-06 16:35 39.72473 144.92804 40089 ft 419 kts 226°
2026-05-06 16:36 39.68001 144.87868 40076 ft 422 kts 227°
2026-05-06 16:36 39.63635 144.82858 40071 ft 421 kts 228°
2026-05-06 16:37 39.59336 144.77815 40090 ft 413 kts 229°
2026-05-06 16:37 39.55101 144.72818 40088 ft 411 kts 229°
2026-05-06 16:38 39.50865 144.67826 40091 ft 413 kts 228°
2026-05-06 16:38 39.46601 144.62818 40094 ft 415 kts 228°
2026-05-06 16:39 39.42318 144.57804 40091 ft 415 kts 228°
2026-05-06 16:39 39.38036 144.52803 40085 ft 415 kts 228°
2026-05-06 16:40 39.33738 144.47788 40094 ft 417 kts 228°
2026-05-06 16:40 39.29426 144.42767 40094 ft 418 kts 228°
2026-05-06 16:41 39.25111 144.37751 40097 ft 418 kts 228°
2026-05-06 16:41 39.20789 144.32736 40093 ft 417 kts 228°
2026-05-06 16:42 39.16476 144.27740 40090 ft 417 kts 228°
2026-05-06 16:42 39.12160 144.22748 40098 ft 417 kts 228°
2026-05-06 16:43 39.07841 144.17762 40090 ft 417 kts 228°
2026-05-06 16:43 39.03531 144.12796 40092 ft 415 kts 228°
2026-05-06 16:44 38.99235 144.07856 40092 ft 411 kts 228°
2026-05-06 16:44 38.95020 144.03023 40093 ft 403 kts 229°
2026-05-06 16:45 38.90849 143.98237 40097 ft 402 kts 229°
2026-05-06 16:45 38.86704 143.93485 40097 ft 402 kts 229°
2026-05-06 16:46 38.82533 143.88714 40099 ft 402 kts 229°
2026-05-06 16:46 38.78350 143.83940 40100 ft 402 kts 228°
2026-05-06 16:47 38.74171 143.79179 40097 ft 402 kts 228°
2026-05-06 16:47 38.69983 143.74416 40087 ft 403 kts 228°
2026-05-06 16:48 38.65757 143.69613 40099 ft 410 kts 228°
2026-05-06 16:48 38.61404 143.64792 40095 ft 421 kts 221°
2026-05-06 16:49 38.56137 143.61285 40093 ft 432 kts 211°
2026-05-06 16:49 38.50527 143.58426 40094 ft 435 kts 210°
2026-05-06 16:50 38.44918 143.55551 40102 ft 434 kts 211°
2026-05-06 16:50 38.39382 143.52584 40098 ft 429 kts 212°
2026-05-06 16:51 38.33943 143.49605 40093 ft 425 kts 212°
2026-05-06 16:51 38.28482 143.46602 40101 ft 429 kts 212°
2026-05-06 16:52 38.22988 143.43584 40101 ft 431 kts 212°
2026-05-06 16:52 38.17486 143.40584 40101 ft 427 kts 213°
2026-05-06 16:53 38.12083 143.37654 40099 ft 419 kts 213°
2026-05-06 16:53 38.07630 143.35231 40099 ft 418 kts 213°
2026-05-06 16:54 38.02284 143.32319 40103 ft 418 kts 213°
2026-05-06 16:54 37.96931 143.29411 40103 ft 419 kts 213°
2026-05-06 16:55 37.91596 143.26529 40098 ft 414 kts 213°
2026-05-06 16:55 37.86315 143.23681 40101 ft 412 kts 213°
2026-05-06 16:56 37.81034 143.20835 40104 ft 413 kts 213°
2026-05-06 16:56 37.75782 143.17997 40104 ft 413 kts 213°
2026-05-06 16:57 37.70493 143.15151 40102 ft 413 kts 213°
2026-05-06 16:57 37.65216 143.12327 40108 ft 412 kts 213°
2026-05-06 16:58 37.59913 143.09482 40107 ft 411 kts 214°
2026-05-06 16:58 37.54679 143.06677 40108 ft 411 kts 213°
2026-05-06 16:59 37.49408 143.03860 40105 ft 411 kts 213°
2026-05-06 16:59 37.44128 143.01042 40107 ft 414 kts 214°
2026-05-06 17:00 37.38822 142.98217 40108 ft 414 kts 213°
2026-05-06 17:00 37.33515 142.95395 40108 ft 414 kts 213°
2026-05-06 17:01 37.28198 142.92584 40110 ft 414 kts 213°
2026-05-06 17:01 37.22888 142.89773 40100 ft 415 kts 214°
2026-05-06 17:02 37.17549 142.86938 40106 ft 417 kts 214°
2026-05-06 17:02 37.12212 142.84074 40102 ft 414 kts 216°
2026-05-06 17:03 37.07163 142.80710 40106 ft 410 kts 219°
2026-05-06 17:03 37.02207 142.77218 40105 ft 409 kts 219°
2026-05-06 17:04 36.97251 142.73698 40102 ft 410 kts 219°
2026-05-06 17:04 36.92275 142.70180 40098 ft 411 kts 219°
2026-05-06 17:05 36.87292 142.66674 40102 ft 411 kts 219°
2026-05-06 17:05 36.82304 142.63173 40101 ft 411 kts 219°
2026-05-06 17:06 36.77317 142.59678 40102 ft 411 kts 219°
2026-05-06 17:06 36.72325 142.56185 40102 ft 411 kts 219°
2026-05-06 17:07 36.67333 142.52696 40091 ft 411 kts 219°
2026-05-06 17:07 36.62367 142.49230 40099 ft 412 kts 219°
2026-05-06 17:08 36.57362 142.45742 40098 ft 413 kts 219°
2026-05-06 17:08 36.52351 142.42255 40101 ft 413 kts 219°
2026-05-06 17:09 36.47337 142.38773 40072 ft 413 kts 218°
2026-05-06 17:09 36.42313 142.35289 40095 ft 414 kts 218°
2026-05-06 17:10 36.37286 142.31806 40101 ft 414 kts 218°
2026-05-06 17:10 36.32258 142.28329 40098 ft 414 kts 218°
2026-05-06 17:11 36.27217 142.24849 40098 ft 415 kts 218°
2026-05-06 17:11 36.22175 142.21373 40095 ft 415 kts 218°
2026-05-06 17:12 36.17128 142.17895 40100 ft 416 kts 218°
2026-05-06 17:12 36.12098 142.14365 40098 ft 412 kts 221°
2026-05-06 17:13 36.07743 142.09971 40100 ft 399 kts 233°
2026-05-06 17:13 36.04556 142.04484 40090 ft 389 kts 246°
2026-05-06 17:14 36.02255 141.98443 40098 ft 389 kts 249°
2026-05-06 17:14 36.00095 141.92312 40098 ft 389 kts 249°
2026-05-06 17:15 35.97928 141.86193 40095 ft 389 kts 249°
2026-05-06 17:15 35.95800 141.80050 40088 ft 388 kts 252°
2026-05-06 17:16 35.94581 141.73633 40096 ft 388 kts 263°
2026-05-06 17:16 35.94399 141.66970 40096 ft 389 kts 268°
2026-05-06 17:17 35.94451 141.60296 40091 ft 389 kts 269°
2026-05-06 17:17 35.94521 141.53607 40091 ft 389 kts 268°
2026-05-06 17:18 35.94566 141.46929 40112 ft 389 kts 268°
2026-05-06 17:18 35.94593 141.40299 39783 ft 377 kts 268°
2026-05-06 17:18 35.94605 141.37101 38862 ft 371 kts 268°
2026-05-06 17:19 35.94614 141.33922 37509 ft 371 kts 267°
2026-05-06 17:19 35.94621 141.30701 35856 ft 380 kts 266°
2026-05-06 17:19 35.94624 141.27404 34195 ft 391 kts 266°
2026-05-06 17:19 35.94626 141.24006 32409 ft 401 kts 265°
2026-05-06 17:20 35.94634 141.20584 31453 ft 397 kts 265°
2026-05-06 17:20 35.94644 141.17142 30637 ft 403 kts 265°
2026-05-06 17:20 35.94647 141.13629 29769 ft 414 kts 265°
2026-05-06 17:20 35.94646 141.10062 28729 ft 418 kts 265°
2026-05-06 17:21 35.94648 141.06488 28055 ft 414 kts 266°
2026-05-06 17:21 35.94651 141.02952 27391 ft 410 kts 266°
2026-05-06 17:21 35.94739 140.99442 26736 ft 409 kts 271°
2026-05-06 17:21 35.95265 140.95989 26086 ft 412 kts 282°
2026-05-06 17:22 35.96335 140.92740 25449 ft 417 kts 292°
2026-05-06 17:22 35.97734 140.89626 25063 ft 413 kts 295°
2026-05-06 17:22 35.99227 140.86609 24472 ft 411 kts 296°
2026-05-06 17:22 36.00764 140.83642 23842 ft 410 kts 297°
2026-05-06 17:23 36.02312 140.80693 23120 ft 409 kts 298°
2026-05-06 17:23 36.03848 140.77760 22554 ft 403 kts 298°
2026-05-06 17:23 36.05355 140.74862 21955 ft 399 kts 298°
2026-05-06 17:23 36.06840 140.71977 21311 ft 397 kts 298°
2026-05-06 17:24 36.08309 140.69103 20687 ft 394 kts 298°
2026-05-06 17:24 36.09769 140.66239 20078 ft 392 kts 298°
2026-05-06 17:24 36.11212 140.63388 19453 ft 391 kts 299°
2026-05-06 17:24 36.12655 140.60536 18817 ft 391 kts 299°
2026-05-06 17:25 36.14095 140.57691 18177 ft 390 kts 300°
2026-05-06 17:25 36.15534 140.54849 17499 ft 389 kts 300°
2026-05-06 17:25 36.16962 140.52026 16866 ft 387 kts 300°
2026-05-06 17:25 36.18394 140.49194 16213 ft 385 kts 300°
2026-05-06 17:26 36.19764 140.46363 15587 ft 382 kts 295°
2026-05-06 17:26 36.20736 140.43332 14967 ft 378 kts 283°
2026-05-06 17:26 36.21092 140.40134 14681 ft 379 kts 272°
2026-05-06 17:26 36.21166 140.37372 14454 ft 382 kts 270°
2026-05-06 17:27 36.21189 140.35719 14307 ft 382 kts 270°
2026-05-06 17:27 36.21220 140.32428 13999 ft 381 kts 269°
2026-05-06 17:27 36.20988 140.29175 13645 ft 379 kts 259°
2026-05-06 17:27 36.20170 140.26092 13286 ft 377 kts 245°
2026-05-06 17:28 36.18791 140.23402 12983 ft 376 kts 232°
2026-05-06 17:28 36.17645 140.21932 12801 ft 376 kts 223°
2026-05-06 17:28 36.15935 140.20405 12564 ft 377 kts 212°
2026-05-06 17:28 36.13521 140.19141 12254 ft 379 kts 199°
2026-05-06 17:29 36.10914 140.18652 11950 ft 382 kts 185°
2026-05-06 17:29 36.08259 140.18945 11647 ft 384 kts 174°
2026-05-06 17:29 36.05639 140.19590 11339 ft 383 kts 172°
2026-05-06 17:29 36.03042 140.20229 11072 ft 379 kts 175°
2026-05-06 17:30 36.00439 140.20487 11009 ft 373 kts 182°
2026-05-06 17:30 35.97856 140.20673 11004 ft 367 kts 177°
2026-05-06 17:30 35.95401 140.21087 10996 ft 345 kts 175°
2026-05-06 17:30 35.93096 140.21514 10996 ft 324 kts 176°
2026-05-06 17:31 35.90937 140.21923 10994 ft 305 kts 176°
2026-05-06 17:31 35.88895 140.22311 11007 ft 289 kts 176°
2026-05-06 17:31 35.86918 140.22684 10997 ft 287 kts 176°
2026-05-06 17:31 35.84966 140.23052 10996 ft 287 kts 176°
2026-05-06 17:32 35.82988 140.23427 10996 ft 287 kts 176°
2026-05-06 17:32 35.81035 140.23799 10987 ft 288 kts 176°
2026-05-06 17:32 35.79057 140.24177 10991 ft 288 kts 176°
2026-05-06 17:32 35.77080 140.24555 10999 ft 287 kts 176°
2026-05-06 17:33 35.75102 140.24934 10994 ft 287 kts 176°
2026-05-06 17:33 35.73129 140.25312 10995 ft 287 kts 176°
2026-05-06 17:33 35.71155 140.25691 10995 ft 287 kts 176°
2026-05-06 17:33 35.69177 140.26069 11001 ft 288 kts 176°
2026-05-06 17:34 35.67192 140.26377 10989 ft 285 kts 182°
2026-05-06 17:34 35.65238 140.26184 10994 ft 281 kts 194°
2026-05-06 17:34 35.63345 140.25606 10993 ft 280 kts 199°
2026-05-06 17:34 35.61471 140.24929 10999 ft 280 kts 200°
2026-05-06 17:35 35.59609 140.24231 11000 ft 280 kts 200°
2026-05-06 17:35 35.57751 140.23525 10988 ft 280 kts 200°
2026-05-06 17:35 35.55882 140.22812 10989 ft 280 kts 200°
2026-05-06 17:36 35.52160 140.21387 10989 ft 280 kts 200°
2026-05-06 17:36 35.50302 140.20676 10991 ft 280 kts 200°
2026-05-06 17:36 35.48440 140.19963 10993 ft 280 kts 200°
2026-05-06 17:36 35.46581 140.19251 10989 ft 280 kts 200°
2026-05-06 17:37 35.44723 140.18540 10987 ft 280 kts 200°
2026-05-06 17:37 35.42857 140.17826 10987 ft 281 kts 200°
2026-05-06 17:37 35.40991 140.17113 10990 ft 281 kts 200°
2026-05-06 17:37 35.39119 140.16396 10994 ft 282 kts 200°
2026-05-06 17:38 35.37250 140.15683 10988 ft 282 kts 200°
2026-05-06 17:38 35.35378 140.14968 10995 ft 282 kts 200°
2026-05-06 17:38 35.33532 140.14264 10992 ft 282 kts 200°
2026-05-06 17:38 35.31661 140.13551 10995 ft 282 kts 200°
2026-05-06 17:39 35.29794 140.12839 10984 ft 279 kts 200°
2026-05-06 17:39 35.27965 140.12144 10629 ft 275 kts 200°
2026-05-06 17:39 35.26149 140.11454 10377 ft 270 kts 200°
2026-05-06 17:39 35.24387 140.10784 10225 ft 263 kts 200°
2026-05-06 17:40 35.22732 140.09935 10094 ft 251 kts 213°
2026-05-06 17:40 35.21438 140.08545 9975 ft 249 kts 233°
2026-05-06 17:40 35.20639 140.06614 9849 ft 264 kts 253°
2026-05-06 17:40 35.20419 140.04370 9644 ft 265 kts 266°
2026-05-06 17:41 35.20423 140.02102 9114 ft 269 kts 269°
2026-05-06 17:41 35.20459 139.99814 8706 ft 269 kts 269°
2026-05-06 17:41 35.20486 139.97530 8389 ft 269 kts 268°
2026-05-06 17:41 35.20500 139.95252 8062 ft 267 kts 268°
2026-05-06 17:42 35.20511 139.92984 7739 ft 267 kts 268°
2026-05-06 17:42 35.20520 139.90715 7413 ft 266 kts 268°
2026-05-06 17:42 35.20525 139.88457 7106 ft 265 kts 268°
2026-05-06 17:42 35.20531 139.86209 6785 ft 264 kts 268°
2026-05-06 17:43 35.20784 139.83977 6459 ft 268 kts 284°
2026-05-06 17:43 35.21302 139.82602 6241 ft 272 kts 299°
2026-05-06 17:43 35.22640 139.80959 5979 ft 278 kts 323°
2026-05-06 17:43 35.24428 139.80014 5597 ft 283 kts 340°
2026-05-06 17:44 35.26335 139.79405 5103 ft 281 kts 343°
2026-05-06 17:44 35.28219 139.78851 4462 ft 277 kts 343°
2026-05-06 17:44 35.30108 139.78391 4096 ft 280 kts 351°
2026-05-06 17:44 35.32024 139.78610 3990 ft 273 kts 15°
2026-05-06 17:45 35.33659 139.79640 3976 ft 256 kts 33°
2026-05-06 17:45 35.35057 139.80878 3972 ft 240 kts 36°
2026-05-06 17:45 35.36341 139.82063 3986 ft 223 kts 36°
2026-05-06 17:45 35.37540 139.83166 4007 ft 211 kts 36°
2026-05-06 17:46 35.38696 139.84222 3860 ft 205 kts 35°
2026-05-06 17:46 35.39845 139.85266 3459 ft 206 kts 35°
2026-05-06 17:46 35.41019 139.86206 3194 ft 195 kts 26°
2026-05-06 17:46 35.42257 139.86766 2886 ft 187 kts 10°
2026-05-06 17:47 35.43537 139.86890 2508 ft 182 kts 355°
2026-05-06 17:47 35.44768 139.86677 2130 ft 175 kts 344°
2026-05-06 17:47 35.45848 139.86184 1945 ft 158 kts 329°
2026-05-06 17:47 35.46774 139.85546 1739 ft 148 kts 326°
2026-05-06 17:48 35.47644 139.84943 1541 ft 140 kts 327°
2026-05-06 17:48 35.48490 139.84368 1364 ft 138 kts 327°
2026-05-06 17:48 35.49331 139.83794 1176 ft 138 kts 327°
2026-05-06 17:48 35.50156 139.83203 1003 ft 137 kts 327°
2026-05-06 17:49 35.50974 139.82615 818 ft 135 kts 327°
2026-05-06 17:49 35.51773 139.82045 647 ft 134 kts 330°
2026-05-06 17:49 35.52596 139.81481 449 ft 134 kts 329°
2026-05-06 17:49 35.53384 139.80923 240 ft 132 kts 328°
2026-05-06 17:50 35.54176 139.80363 88 ft 131 kts 329°
2026-05-06 17:50 35.54938 139.79825 30 ft 106 kts 330°
2026-05-06 17:50 35.55273 139.79588 30 ft 13 kts 330°
2026-05-06 17:50 35.55310 139.79562 30 ft 6 kts 329°
2026-05-06 17:51 35.55397 139.79472 30 ft 22 kts 314°
2026-05-06 17:51 35.55486 139.79339 29 ft 21 kts 299°
2026-05-06 17:51 35.55523 139.79232 29 ft 21 kts 280°
2026-05-06 17:51 35.55606 139.79096 29 ft 21 kts 330°
2026-05-06 17:52 35.55742 139.79001 29 ft 24 kts 330°
2026-05-06 17:52 35.55891 139.78896 29 ft 26 kts 330°
2026-05-06 17:52 35.56050 139.78782 29 ft 28 kts 330°
2026-05-06 17:52 35.56222 139.78659 29 ft 29 kts 329°
2026-05-06 17:53 35.56367 139.78554 29 ft 20 kts 319°
2026-05-06 17:53 35.56354 139.78407 29 ft 20 kts 239°
2026-05-06 17:53 35.56282 139.78253 29 ft 22 kts 240°
2026-05-06 17:53 35.56200 139.78085 29 ft 24 kts 240°
2026-05-06 17:54 35.56115 139.77906 30 ft 25 kts 240°
2026-05-06 17:54 35.56026 139.77714 30 ft 27 kts 238°
2026-05-06 17:54 35.55926 139.77512 29 ft 28 kts 240°
2026-05-06 17:54 35.55847 139.77348 29 ft 19 kts 230°
2026-05-06 17:55 35.55740 139.77249 29 ft 19 kts 214°
2026-05-06 17:55 35.55639 139.77164 30 ft 18 kts 214°
2026-05-06 17:55 35.55526 139.77067 29 ft 21 kts 215°
2026-05-06 17:55 35.55399 139.77074 29 ft 13 kts 151°
2026-05-06 17:56 35.55334 139.77105 29 ft 4 kts 207°
2026-05-06 17:56 35.55323 139.77085 29 ft 3 kts 242°
2026-05-06 17:56 35.55301 139.77053 29 ft 6 kts 217°
2026-05-06 17:56 35.55255 139.77054 29 ft 8 kts 160°
2026-05-06 17:57 35.55194 139.77091 29 ft 11 kts 154°
2026-05-06 17:57 35.55126 139.77062 29 ft 12 kts 232°
2026-05-06 17:57 35.55079 139.76964 29 ft 15 kts 240°
2026-05-06 17:57 35.55024 139.76844 29 ft 17 kts 239°
2026-05-06 17:58 35.54965 139.76719 29 ft 17 kts 240°
2026-05-06 17:58 35.54915 139.76613 29 ft 7 kts 238°
2026-05-06 17:58 35.54883 139.76548 29 ft 11 kts 238°
2026-05-06 17:58 35.54856 139.76497 29 ft 6 kts 226°
2026-05-06 17:59 35.54816 139.76499 29 ft 7 kts 153°
2026-05-06 17:59 35.54796 139.76512 29 ft 0 kts 149°
2026-05-06 17:59 35.54796 139.76513 29 ft 1 kts 151°